Location: Aix-en-Ergny
(50.5839°N, 1.9996°E)
Time: 20:19:26
(UTC+00:00)

USA 32 - Pass Details

Date: 23 October 2019
Orbit: 778 x 782 km, 85.0° (Epoch: 28 October)

Event Time Altitude Azimuth Distance (km) Brightness Sun altitude
Exits shadow 03:26:06 57° 129° (SE) 921 4.4 -29.1°
Maximum altitude 03:26:47 63° 92° (E) 875 4.4 -29.0°
Drops below altitude 10° 03:31:58 10° 12° (NNE) 2,346 6.8 -28.2°
Sets 03:34:21 0° 9° (N) 3,280 7.6 -27.9°
